Location: Unspecified
(0.0000°N, 0.0000°E)
Time: 00:30:38
(UTC+00:00)

Fuji - Pass Details

Date: 09 December 2022
Orbit: 1479 x 1496 km, 50.0° (Epoch: 26 January)

Event Time Altitude Azimuth Distance (km) Brightness Sun altitude
Rises 02:16:13 0° 183° (S) 4,625 ? -48.2°
Reaches altitude 10° 02:21:37 10° 157° (SSE) 3,642 ? -47.1°
Maximum altitude 02:25:29 13° 131° (SE) 3,390 ? -46.3°
Drops below altitude 10° 02:29:20 10° 106° (ESE) 3,636 ? -45.5°
Sets 02:34:38 0° 80° (E) 4,611 ? -44.4°
